Miscellaneous Local Product
Issued by NWS Hastings, NE

Home | Current Version | Previous Version | Graphics & Text | Print | Product List | Glossary On
Versions: 1 2 3 4 5 6 7 8 9 10 11 12 13 14 15 16 17 18 19 20 21 22 23 24 25 26 27 28 29 30 31 32 33 34 35 36 37 38 39 40 41 42 43 44 45 46 47 48 49 50
566
AXUS43 KGID 060002
MISGRI

GID CWA HOURLY WEATHER ROUNDUP
NATIONAL WEATHER SERVICE HASTINGS NE
600 PM CST FRI FEB 05 2016

NOTE: "FAIR" INDICATES FEW OR NO CLOUDS BELOW 12,000 FEET WITH NO
SIGNIFICANT WEATHER AND/OR OBSTRUCTIONS TO VISIBILITY.

...SOUTH CENTRAL NEBRASKA...

CITY           SKY/WX    TMP DP  RH WIND       PRES   REMARKS
GRAND ISLAND   CLOUDY    36  29  75 W8        30.23R WCI  30
HASTINGS       CLOUDY    35  29  78 W5        30.22R WCI  31
ORD            CLOUDY    35  28  75 NW14      30.21R WCI  26
YORK           CLOUDY    36  32  87 SW8       30.22S WCI  29
AURORA         CLOUDY    34  32  91 W7        30.21R WCI  28
LEXINGTON      CLOUDY    36  29  75 NW9       30.24R WCI  29
HOLDREGE       CLOUDY    36  28  72 NW12      30.23R WCI  28
HEBRON         CLEAR     32  26  78 SW7       30.24S WCI  26

...NEBRASKA PANHANDLE...

CITY           SKY/WX    TMP DP  RH WIND       PRES   REMARKS
CHADRON        CLEAR     33  23  66 W15       30.23S WCI  23
ALLIANCE       CLEAR     30  19  63 NW16      30.22S WCI  19
SCOTTSBLUFF    CLEAR     31  17  56 W15       30.26F WCI  20
SIDNEY         CLEAR     27  18  69 NW17      30.25S WCI  14

...WESTERN AND NORTH CENTRAL NEBRASKA...

CITY           SKY/WX    TMP DP  RH WIND       PRES   REMARKS
VALENTINE      CLEAR     31  24  75 NW7       30.22R WCI  24
AINSWORTH      MOCLDY    33  26  75 NW10      30.21S WCI  24
ONEILL         CLOUDY    35  31  87 NW17G23   30.20R WCI  24
BROKEN BOW     CLOUDY    35  26  69 NW10      30.22R WCI  27
IMPERIAL       CLEAR     32  21  64 NW12      30.25S WCI  23
NORTH PLATTE   CLEAR     35  23  61 NW15      30.24R WCI  25
MCCOOK         PTCLDY    33  25  72 W9        30.25S WCI  25

...EASTERN NEBRASKA...

CITY           SKY/WX    TMP DP  RH WIND       PRES   REMARKS
NORFOLK        CLOUDY    37  31  78 NW14      30.18R WCI  28
SO SIOUX CITY  CLOUDY    30  25  81 SE5       30.21F WCI  25
TEKAMAH        CLOUDY    29  26  89 S7        30.23S FOG     WCI  22
COLUMBUS       MOCLDY    36  25  64 SW5       30.21S WCI  32
ALBION         CLOUDY    37  30  76 NW8       30.20R WCI  30
OMAHA EPPLEY   CLOUDY    32  28  85 S8        30.25S FOG     WCI  25
OFFUTT AFB     MOCLDY    32  30  93 S5        30.25R WCI  27
MILLARD        CLOUDY    32  29  88 S3        30.25S
LINCOLN        CLOUDY    34  28  79 SW7       30.25S WCI  28
NEBRASKA CITY  MOCLDY    31  31 100 CALM      30.25S
BEATRICE       CLOUDY    34  29  82 W7        30.24S WCI  28
FALLS CITY     CLOUDY    35  25  66 SE6       30.26F WCI  30

...NORTHERN KANSAS...

CITY           SKY/WX    TMP DP  RH WIND       PRES   REMARKS
GOODLAND       CLEAR     30  21  69 NW10      30.27R WCI  21
HILL CITY      CLEAR     36  26  67 NW10      30.27R WCI  28
NORTON         PTCLDY    34  25  69 W10       30.25R WCI  26
PHILLIPSBURG   CLOUDY    37  28  70 CALM      30.26S
BELOIT         CLEAR     34  27  75 W3        30.25R
HAYS           CLEAR     36  21  55 W8        30.26R WCI  29
RUSSELL        CLEAR     34  29  82 W7        30.24R WCI  28
CONCORDIA      CLEAR     36  24  62 W7        30.24R WCI  30
SALINA         CLEAR     41  22  46 S6        30.26R
TOPEKA         CLOUDY    40  22  48 E3        30.28R



USA.gov is the U.S. government's official web portal to all federal, state and local government web resources and services.